This demonstration page uses our WeatherBlox Daily Observations layout. Learn more.

Left ArrowRight Arrow

Hourly Observations for April 16, 2017

Temp ( °F °C ) Dew Point ( °F °C ) Humidity (%) Winds ( mph kmh ) Pressure ( in mb ) Visibility ( mi km ) Precip ( " mm )
12:15 am 00:15 Clear 54 12 45 7 72 72 NE 14 22 30.03 1017 10 16 0.00 0.00
12:35 am 00:35 Clear 54 12 45 7 72 72 NNE 17 28 30.03 1017 10 16 0.00 0.00
12:55 am 00:55 Clear 54 12 45 7 72 72 NNE 12 19 30.03 1017 10 16 0.00 0.00
1:15 am 01:15 Clear 52 11 45 7 77 77 NE 9 15 30.06 1018 10 16 0.00 0.00
1:35 am 01:35 Clear 52 11 45 7 77 77 NNE 7 11 30.06 1018 10 16 0.00 0.00
1:55 am 01:55 Clear 48 9 43 6 82 82 NNE 9 15 30.06 1018 10 16 0.00 0.00
2:15 am 02:15 Clear 50 10 45 7 82 82 NNE 8 13 30.06 1018 10 16 0.00 0.00
2:35 am 02:35 Clear 50 10 45 7 82 82 NNE 8 13 30.06 1018 10 16 0.00 0.00
2:55 am 02:55 Mostly Cloudy 52 11 45 7 77 77 NNE 10 17 30.06 1018 10 16 0.00 0.00
3:15 am 03:15 Cloudy 52 11 45 7 77 77 NNE 10 17 30.06 1018 10 16 0.00 0.00
3:35 am 03:35 Mostly Cloudy 52 11 45 7 77 77 NNE 9 15 30.06 1018 10 16 0.00 0.00
3:55 am 03:55 Mostly Cloudy 52 11 45 7 77 77 NE 7 11 30.03 1017 10 16 0.00 0.00
4:15 am 04:15 Cloudy 52 11 45 7 77 77 NE 5 7 30.06 1018 10 16 0.00 0.00
4:35 am 04:35 Cloudy 52 11 45 7 77 77 NNE 5 7 30.09 1019 10 16 0.00 0.00
4:55 am 04:55 Cloudy 52 11 45 7 77 77 Calm 30.09 1019 10 16 0.00 0.00
5:15 am 05:15 Cloudy 50 10 45 7 82 82 NE 3 6 30.06 1018 10 16 0.00 0.00
5:35 am 05:35 Cloudy 48 9 45 7 87 87 NNE 7 11 30.12 1020 10 16 0.00 0.00
5:55 am 05:55 Mostly Cloudy 48 9 45 7 87 87 NE 5 7 30.12 1020 10 16 0.00 0.00
6:15 am 06:15 Cloudy 50 10 43 6 76 76 Calm 30.09 1019 10 16 0.00 0.00
6:35 am 06:35 Cloudy 50 10 45 7 82 82 NNE 3 6 30.09 1019 10 16 0.00 0.00
6:55 am 06:55 Cloudy 50 10 45 7 82 82 NNE 9 15 30.09 1019 10 16 0.00 0.00
7:15 am 07:15 Cloudy 50 10 43 6 76 76 E 12 19 30.09 1019 10 16 0.00 0.00
7:35 am 07:35 Mostly Cloudy 52 11 43 6 72 72 N 7 11 30.09 1019 10 16 0.00 0.00
7:55 am 07:55 Cloudy 52 11 43 6 72 72 NNE 8 13 30.12 1020 10 16 0.00 0.00
8:15 am 08:15 Mostly Cloudy 52 11 43 6 72 72 E 7 11 30.12 1020 10 16 0.00 0.00
8:35 am 08:35 Cloudy 52 11 43 6 72 72 ENE 5 7 30.15 1021 10 16 0.00 0.00
8:55 am 08:55 Mostly Cloudy 52 11 41 5 67 67 ENE 8 13 30.15 1021 10 16 0.00 0.00
9:15 am 09:15 Mostly Cloudy 54 12 39 4 58 58 ENE 9 15 30.15 1021 10 16 0.00 0.00
9:35 am 09:35 Cloudy 54 12 39 4 58 58 ENE 10 17 30.15 1021 10 16 0.00 0.00
9:55 am 09:55 Mostly Cloudy 54 12 39 4 58 58 NE 12 19 30.15 1021 10 16 0.00 0.00
10:15 am 10:15 Mostly Cloudy 57 14 39 4 51 51 NE 16 26 30.12 1020 10 16 0.00 0.00
10:35 am 10:35 Mostly Cloudy 59 15 37 3 45 45 NE 15 24 30.12 1020 10 16 0.00 0.00
10:55 am 10:55 Partly Cloudy 61 16 36 2 39 39 NE 15 24 30.12 1020 10 16 0.00 0.00
11:15 am 11:15 Mostly Cloudy 63 17 32 0 32 32 ENE 15 24 30.09 1019 10 16 0.00 0.00
11:35 am 11:35 Cloudy 63 17 28 -2 27 27 E 14 22 30.09 1019 10 16 0.00 0.00
11:55 am 11:55 Cloudy 64 18 27 -3 24 24 E 13 20 30.12 1020 10 16 0.00 0.00
12:15 pm 12:15 Cloudy 64 18 28 -2 26 26 E 13 20 30.12 1020 10 16 0.00 0.00
12:35 pm 12:35 Mostly Cloudy 66 19 30 -1 26 26 SE 12 19 30.12 1020 10 16 0.00 0.00
12:55 pm 12:55 Mostly Cloudy 66 19 30 -1 26 26 ESE 12 19 30.09 1019 10 16 0.00 0.00
1:15 pm 13:15 Mostly Sunny 68 20 34 1 28 28 SE 18 30 30.09 1019 10 16 0.00 0.00
1:35 pm 13:35 Sunny 66 19 27 -3 22 22 SE 16 26 30.09 1019 10 16 0.00 0.00
1:55 pm 13:55 Sunny 66 19 28 -2 24 24 ESE 18 30 30.09 1019 10 16 0.00 0.00
2:15 pm 14:15 Sunny 66 19 27 -3 22 22 ESE 18 30 30.09 1019 10 16 0.00 0.00
2:35 pm 14:35 Sunny 66 19 32 0 28 28 SE 12 19 30.09 1019 10 16 0.00 0.00
2:55 pm 14:55 Sunny 66 19 28 -2 24 24 SE 13 20 30.09 1019 10 16 0.00 0.00
3:15 pm 15:15 Sunny 68 20 32 0 26 26 E 12 19 30.09 1019 10 16 0.00 0.00
3:35 pm 15:35 Sunny 68 20 36 2 30 30 S 14 22 30.06 1018 10 16 0.00 0.00
3:55 pm 15:55 Sunny 68 20 37 3 33 33 ESE 10 17 30.06 1018 10 16 0.00 0.00
4:15 pm 16:15 Sunny 68 20 36 2 30 30 SE 14 22 30.06 1018 10 16 0.00 0.00
4:35 pm 16:35 Sunny 68 20 34 1 28 28 SE 13 20 30.03 1017 10 16 0.00 0.00
4:55 pm 16:55 Sunny 68 20 34 1 28 28 ESE 14 22 30.03 1017 10 16 0.00 0.00
5:15 pm 17:15 Sunny 68 20 36 2 30 30 SE 16 26 30.03 1017 10 16 0.00 0.00
5:35 pm 17:35 Sunny 68 20 36 2 30 30 SE 17 28 30.03 1017 10 16 0.00 0.00
5:55 pm 17:55 Sunny 66 19 36 2 32 32 SE 16 26 30.03 1017 10 16 0.00 0.00
6:15 pm 18:15 Sunny 66 19 36 2 32 32 SSE 16 26 30.03 1017 10 16 0.00 0.00
6:35 pm 18:35 Sunny 66 19 36 2 32 32 SSE 10 17 30.03 1017 10 16 0.00 0.00
6:55 pm 18:55 Sunny 64 18 37 3 37 37 SSE 10 17 30.03 1017 10 16 0.00 0.00
7:15 pm 19:15 Sunny 64 18 37 3 37 37 S 12 19 30.03 1017 10 16 0.00 0.00
7:35 pm 19:35 Sunny 63 17 39 4 42 42 SSE 13 20 30.06 1018 10 16 0.00 0.00
7:55 pm 19:55 Sunny 61 16 39 4 45 45 SSE 10 17 30.09 1019 10 16 0.00 0.00
8:15 pm 20:15 Sunny 59 15 39 4 48 48 SSE 9 15 30.06 1018 10 16 0.00 0.00
8:35 pm 20:35 Clear 57 14 39 4 51 51 SSE 10 17 30.06 1018 10 16 0.00 0.00
8:55 pm 20:55 Clear 57 14 41 5 55 55 SSE 12 19 30.06 1018 10 16 0.00 0.00
9:15 pm 21:15 Clear 57 14 39 4 51 51 SSE 13 20 30.06 1018 10 16 0.00 0.00
9:35 pm 21:35 Clear 55 13 39 4 55 55 SSE 12 19 30.06 1018 10 16 0.00 0.00
9:55 pm 21:55 Clear 54 12 39 4 58 58 SSE 10 17 30.12 1020 10 16 0.00 0.00
10:15 pm 22:15 Clear 54 12 39 4 58 58 SSE 12 19 30.12 1020 10 16 0.00 0.00
10:35 pm 22:35 Clear 52 11 39 4 62 62 S 9 15 30.12 1020 10 16 0.00 0.00
10:55 pm 22:55 Clear 52 11 39 4 62 62 S 10 17 30.12 1020 10 16 0.00 0.00
11:15 pm 23:15 Clear 50 10 39 4 67 67 S 8 13 30.12 1020 10 16 0.00 0.00
11:35 pm 23:35 Clear 48 9 37 3 66 66 S 7 11 30.15 1021 10 16 0.00 0.00
11:55 pm 23:55 Clear 46 8 39 4 76 76 SSW 6 9 30.18 1022 10 16 0.00 0.00

Powered by AerisWeather